User: anonymous
Location: Fort Wayne
(41.1310°N, 85.1290°W)
Time: 12:22:47
(UTC-04:00)
Language:

OPAL - Orbit

View from above orbital plane
View from above orbital plane
View from above satellite
View from above satellite

Ground track
Ground track

The orbit data is extracted from the following two-line orbital elements,

1 26063U 00004C   14265.47025665  .00000111  00000-0  57743-4 0   651
2 26063 100.2246 069.4727 0036135 243.2682 116.4798 14.36399575767989
Epoch (UTC): 22 September 2014 11:17:10
Eccentricity: 0.0036135
inclination: 100.2246°
perigee height: 744 km
apogee height: 796 km
right ascension of ascending node: 69.4727°
argument of perigee: 243.2682°
revolutions per day: 14.36399575
mean anomaly at epoch: 116.4798°
orbit number at epoch: 76798

The dashed part of the orbit path shows where the satellite is in the earth's shadow,  

DLR